This is the latest recevied weather packets stored in our database for station/object HS3MXC-5. If no packets are shown the sender has not sent any weather packets the latest 1 day(s).
| Time | Temp. | Humidity | Pressure | Rain* | Wind** | Luminosity | Snow |
|---|---|---|---|---|---|---|---|
| 1778055966 | 35° C | 54% | 993.2 hPa | - | - | - | - |
| 1778055665 | 35° C | 54% | 993.4 hPa | - | - | - | - |
| 1778054770 | 34.44° C | 55% | 993.5 hPa | - | - | - | - |
| 1778053266 | 33.89° C | 57% | 993.9 hPa | - | - | - | - |
| 1778052665 | 33.89° C | 57% | 994.1 hPa | - | - | - | - |
| 1778052367 | 33.89° C | 58% | 994.2 hPa | - | - | - | - |
| 1778051467 | 33.89° C | 58% | 994.3 hPa | - | - | - | - |
| 1778050566 | 34.44° C | 56% | 994.5 hPa | - | - | - | - |
| 1778049365 | 33.33° C | 60% | 994.8 hPa | - | - | - | - |
| 1778049066 | 32.78° C | 60% | 994.9 hPa | - | - | - | - |
| 1778048766 | 32.78° C | 61% | 994.9 hPa | - | - | - | - |
| 1778048465 | 32.78° C | 61% | 995 hPa | - | - | - | - |
| 1778047865 | 32.78° C | 61% | 995.3 hPa | - | - | - | - |
| 1778047266 | 32.78° C | 62% | 995.7 hPa | - | - | - | - |
| 1778046366 | 32.22° C | 62% | 995.9 hPa | - | - | - | - |
| 1778044865 | 32.22° C | 64% | 996.6 hPa | - | - | - | - |
| 1778044566 | 32.22° C | 65% | 996.7 hPa | - | - | - | - |
| 1778044265 | 32.22° C | 64% | 996.8 hPa | - | - | - | - |
| 1778043965 | 32.22° C | 65% | 996.9 hPa | - | - | - | - |
| 1778043665 | 31.67° C | 65% | 997 hPa | - | - | - | - |
| 1778043066 | 31.67° C | 65% | 997.2 hPa | - | - | - | - |
| 1778042465 | 31.67° C | 65% | 997.3 hPa | - | - | - | - |
| 1778041565 | 31.67° C | 66% | 997.5 hPa | - | - | - | - |
| 1778040965 | 31.67° C | 66% | 997.6 hPa | - | - | - | - |
| 1778040065 | 31.11° C | 66% | 997.7 hPa | - | - | - | - |
* Rain since midnight (hover to see other rain measurements)
** Current wind speed in m/s (hover to see current wind gust speed)